Regional Weather Roundup
Issued by NWS Burlington, VT

Home | Current Version | Previous Version | Text Only | Print | Product List | Glossary On
Versions: 1 2 3 4 5 6 7 8 9 10 11 12 13 14 15 16 17 18 19 20 21 22 23 24 25 26 27 28 29 30 31 32 33 34 35 36 37 38 39 40 41 42 43 44 45 46 47 48 49 50
847
ASUS41 KBTV 221930
RWRBTV
VERMONT REGIONAL WEATHER ROUNDUP
NATIONAL WEATHER SERVICE BURLINGTON VT
200 PM EST WED NOV 22 2017

NOTE: "FAIR" INDICATES FEW OR NO CLOUDS BELOW 12,000 FEET WITH NO
SIGNIFICANT WEATHER AND/OR OBSTRUCTIONS TO VISIBILITY.

* THESE REPORTS ARE NOT UNDER NWS QUALITY CONTROL AND/OR DO NOT
  REPORT WEATHER SUCH AS PRECIPITATION AND FOG.

VTZ001>019-222000-
_____VERMONT_____


CITY           SKY/WX    TMP DP  RH WIND       PRES   REMARKS
BURLINGTON     PTSUNNY   37  34  89 E5        29.96S
MONTPELIER     LGT SNOW  33  33 100 NW8       29.92S FOG     WCI  26
MORRISVILLE    CLOUDY    34  32  92 N7        29.93S WCI  28
ST. JOHNSBURY*   N/A     36  36 100 MISG      29.87S
LYNDONVILLE*   LGT SNOW  33  32  96 W6        29.89R WCI  28
MIDDLEBURY*    CLOUDY    37  32  84 N7        29.93S WCI  31
RUTLAND*       CLOUDY    36  34  92 NW9G17    29.91R WCI  29
SPRINGFIELD    LGT RAIN  40  36  86 W8        29.87R
HIGHGATE*      PTSUNNY   37  33  85 CALM      29.96S
NEWPORT*       LGT SNOW  32  32  99 W5        29.92R WCI  27
BENNINGTON     CLOUDY    39  33  79 NW8G17    29.91R
SUTTON*          N/A     32 N/A N/A MISG        N/A
ISLAND POND*     N/A     34 N/A N/A W8          N/A  WCI  27
GALLUP MILLS*    N/A     34 N/A N/A MISG        N/A
UNION VILLAGE*   N/A     36 N/A N/A MISG        N/A

_____LAKE CHAMPLAIN_____


CITY           SKY/WX    TMP DP  RH WIND       PRES   REMARKS
BURTON ISLAND*   N/A     37  36  93 NE1         N/A
COLCHESTER RF*   N/A     37  36  93 E7          N/A
DIAMOND ISL*     N/A     37  34  87 N12         N/A  WCI  30

$$

NYZ007-026>031-035-052-083-087-222000-
_____NORTHERN NEW YORK_____


CITY           SKY/WX    TMP DP  RH WIND       PRES   REMARKS
PLATTSBURGH    CLOUDY    40  34  79 CALM      29.95S
SARANAC LAKE   FLURRIES  30  29  96 VRB6      29.91S WCI  24
MASSENA        CLOUDY    33  29  85 W12       30.04R WCI  24
OGDENSBURG*    CLOUDY    31  25  79 NW9       30.06R WCI  22
POTSDAM*       CLOUDY    30  30 100 NW8       30.03R WCI  23
STARK FALLS*     N/A     30 N/A N/A NW5         N/A  WCI  25
WATERTOWN      CLOUDY    33  31  92 N8        30.06R WCI  26
FT DRUM        CLOUDY    30  27  86 N9        30.02R WCI  22
ALBANY         PTSUNNY   42  32  67 W14       29.95S
GLENS FALLS    CLOUDY    40  33  76 N8        29.94R

$$
NHZ002-005-011-222000-
_____NEW HAMPSHIRE_____


CITY           SKY/WX    TMP DP  RH WIND       PRES   REMARKS
LEBANON        LGT RAIN  38  36  92 VRB5      29.87R FOG
KEENE          LGT RAIN  40  39  97 CALM      29.85S
MT WASHINGTON  SNOW      27  27 100 W28         N/A  VSB 1/16WCI  11
PLYMOUTH       MIX PCPN  33  32  96 NE5       29.83S WCI  28
WHITEFIELD     LGT RAIN  36  34  92 CALM      29.83F

$$

_____REGIONAL QUEBEC LOCATIONS_____


CITY           SKY/WX    TMP DP  RH WIND       PRES   REMARKS
MONTREAL       CLOUDY    36  30  80 W15       29.97S WCI  26
QUEBEC CITY    LGT RAIN  36  34  93 SW12      29.89R FOG     WCI  27
SHERBROOKE     LGT SNOW  32  32 100 W7        29.88F WCI  26

_____REGIONAL ONTARIO LOCATIONS_____


CITY           SKY/WX    TMP DP  RH WIND       PRES   REMARKS
OTTAWA         MOSUNNY   30  19  64 NW16      30.04R WCI  19

______KEY______
VSB  - VISIBILITY IN MILES
WCI  - WIND CHILL INDEX
HX   - HEAT INDEX
$$
NNNN




USA.gov is the U.S. government's official web portal to all federal, state and local government web resources and services.